Regional Weather Roundup
Issued by NWS Cleveland, OH

Home | Current Version | Previous Version | Graphics & Text | Print | Product List | Glossary On
Versions: 1 2 3 4 5 6 7 8 9 10 11 12 13 14 15 16 17 18 19 20 21 22 23 24 25 26 27 28 29 30 31 32 33 34 35 36 37 38 39 40 41 42 43 44 45 46 47 48 49 50
000
ASUS41 KCLE 041110
RWRCLE
OHIO REGIONAL WEATHER ROUNDUP
NATIONAL WEATHER SERVICE CLEVELAND, OH
600 AM EST SUN DEC 04 2016

NOTE: "FAIR" INDICATES FEW OR NO CLOUDS BELOW 12,000 FEET WITH NO
SIGNIFICANT WEATHER AND/OR OBSTRUCTIONS TO VISIBILITY.

OHZ001>008-015>018-024>027-034-035-043-044-041200-
   NORTHWEST OHIO

CITY           SKY/WX    TMP DP  RH WIND       PRES   REMARKS
DEFIANCE       CLOUDY    35  26  69 CALM      30.23F
FINDLAY        CLOUDY    34  26  72 E5        30.22F WCI  30
TOLEDO EXPRESS CLOUDY    31  27  85 E3        30.23F
TOLEDO EXEC    CLOUDY    34  29  82 CALM      30.25F
LIMA           CLOUDY    33  28  81 SE9       30.21F WCI  25
$$

OHZ009>014-019>023-028>033-038-089-041200-
   NORTHEAST OHIO

CITY           SKY/WX    TMP DP  RH WIND       PRES   REMARKS
CLE-HOPKINS    CLOUDY    35  26  69 SW3       30.27F
CLE-LAKEFRONT  CLOUDY    36  26  67 SW6       30.26F
CUY CO. ARPT   NOT AVBL
LORAIN-ELYRIA  CLOUDY    33  25  72 CALM      30.27S
ASHTABULA      CLOUDY    33  31  92 CALM      30.24F
AKRON-CANTON   CLOUDY    34  24  67 CALM      30.24S
WOOSTER        CLOUDY    32  28  85 CALM      30.25F
MANSFIELD      CLOUDY    33  27  78 E3        30.23S
YOUNGSTOWN     PTCLDY    31  26  82 SW3       30.23S
$$

OHZ042-051>053-060>062-070>072-077>081-041200-
  SOUTHWEST OHIO

CITY           SKY/WX    TMP DP  RH WIND       PRES   REMARKS
CINC-COVINGTON CLOUDY    37  30  75 E6        30.20F
CINC-LUNKEN    CLOUDY    37  32  82 N3        30.23F
HAMILTON       MOCLDY    36  30  79 CALM      30.23F
DAYTON         CLOUDY    34  28  79 SE6       30.22F WCI  29
WRIGHT-PAT AFB CLOUDY    34  29  82 E3        30.22F
DAYTON GENERAL CLOUDY    35  27  72 E6        30.20F
WILMINGTON     CLOUDY    33  29  85 E3        30.22S
$$

OHZ036-037-039>041-045>050-054>059-063>069-073>076-082>088-041200-
  CENTRAL AND SOUTHEAST OHIO

CITY           SKY/WX    TMP DP  RH WIND       PRES   REMARKS
COLUMBUS       CLOUDY    35  30  82 E5        30.24S
OSU AIRPORT    CLOUDY    34  29  82 E3        30.24S
BOLTON FIELD   CLOUDY    33  30  90 CALM      30.24S
RICKENBACK AFB CLOUDY    32  31  96 CALM      30.24R
NEWARK         CLOUDY    34  27  75 N3        30.24S
MARION         CLOUDY    32  27  81 SE5       30.24S WCI  27
LANCASTER      CLOUDY    34  30  85 CALM      30.24F
ZANESVILLE     CLOUDY    34  26  72 CALM      30.24F
NEW PHILLY     CLOUDY    32  29  88 CALM      30.26
$$




USA.gov is the U.S. government's official web portal to all federal, state and local government web resources and services.